• Em Portugal
  • Lista de países
  • Para 7 dias
  • Temperatura da água
  • Mapas de satélite
  • Mapa do tempo
  • Widgets de tempo
  • user-avatar
    Iniciar Sessão

    Previsão horária em Francistown

    Hoje, 20 Setembro, Quarta-feira

    Tempo Temperatura Precipitação Vento Pressão Humidade
    00:00 +23°C° 0 mm 4 m/s 680 mmHg 50%
    01:00 +23°C° 0 mm 4 m/s 680 mmHg 52%
    02:00 +22°C° 0 mm 4 m/s 680 mmHg 57%
    03:00 +21°C° 0 mm 4 m/s 680 mmHg 59%
    04:00 +21°C° 0 mm 4 m/s 680 mmHg 61%
    05:00 +21°C° 0 mm 5 m/s 680 mmHg 63%
    06:00 +22°C° 0 mm 5 m/s 681 mmHg 59%
    07:00 +23°C° 0 mm 5 m/s 681 mmHg 55%
    08:00 +24°C° 0 mm 6 m/s 682 mmHg 51%
    09:00 +27°C° 0 mm 6 m/s 682 mmHg 43%
    10:00 +30°C° 0 mm 6 m/s 682 mmHg 36%
    11:00 +33°C° 0 mm 6 m/s 682 mmHg 28%
    12:00 +34°C° 0 mm 6 m/s 682 mmHg 26%
    13:00 +35°C° 0 mm 6 m/s 681 mmHg 23%
    14:00 +36°C° 0 mm 6 m/s 680 mmHg 21%
    15:00 +35°C° 0 mm 6 m/s 680 mmHg 21%
    16:00 +35°C° 0 mm 6 m/s 680 mmHg 22%
    17:00 +34°C° 0 mm 7 m/s 679 mmHg 23%
    18:00 +32°C° 0 mm 7 m/s 680 mmHg 26%
    19:00 +30°C° 0 mm 7 m/s 680 mmHg 29%
    20:00 +28°C° 0 mm 7 m/s 680 mmHg 33%
    21:00 +27°C° 0 mm 8 m/s 681 mmHg 36%
    22:00 +26°C° 0 mm 8 m/s 681 mmHg 39%
    23:00 +26°C° 0 mm 8 m/s 681 mmHg 43%

    Amanhã, 21 Setembro, Quinta-feira

    Tempo Temperatura Precipitação Vento Pressão Humidade
    00:00 +24°C° 0 mm 7 m/s 681 mmHg 44%
    01:00 +23°C° 0 mm 7 m/s 681 mmHg 45%
    02:00 +22°C° 0 mm 7 m/s 681 mmHg 46%
    03:00 +22°C° 0 mm 6 m/s 681 mmHg 47%
    04:00 +21°C° 0 mm 5 m/s 681 mmHg 47%
    05:00 +21°C° 0 mm 4 m/s 681 mmHg 47%
    06:00 +21°C° 0 mm 5 m/s 681 mmHg 46%
    07:00 +22°C° 0 mm 5 m/s 682 mmHg 45%
    08:00 +22°C° 0 mm 6 m/s 682 mmHg 44%
    09:00 +24°C° 0 mm 6 m/s 682 mmHg 39%
    10:00 +27°C° 0 mm 6 m/s 682 mmHg 34%
    11:00 +30°C° 0 mm 6 m/s 683 mmHg 29%
    12:00 +32°C° 0 mm 6 m/s 682 mmHg 27%
    13:00 +33°C° 0 mm 6 m/s 681 mmHg 25%
    14:00 +34°C° 0 mm 6 m/s 680 mmHg 23%
    15:00 +34°C° 0 mm 6 m/s 680 mmHg 24%
    16:00 +33°C° 0 mm 6 m/s 679 mmHg 24%
    17:00 +32°C° 0 mm 6 m/s 679 mmHg 25%
    18:00 +30°C° 0 mm 6 m/s 679 mmHg 27%
    19:00 +28°C° 0 mm 6 m/s 680 mmHg 29%
    20:00 +27°C° 0 mm 5 m/s 680 mmHg 31%
    21:00 +26°C° 0 mm 5 m/s 680 mmHg 32%
    22:00 +25°C° 0 mm 5 m/s 680 mmHg 33%
    23:00 +23°C° 0 mm 6 m/s 681 mmHg 34%

    Depois de amanhã, 22 Setembro, Sexta-feira

    Tempo Temperatura Precipitação Vento Pressão Humidade
    00:00 +22°C° 0 mm 5 m/s 680 mmHg 37%
    01:00 +21°C° 0 mm 5 m/s 680 mmHg 40%
    02:00 +20°C° 0 mm 5 m/s 679 mmHg 44%
    03:00 +20°C° 0 mm 5 m/s 679 mmHg 47%
    04:00 +19°C° 0 mm 4 m/s 679 mmHg 50%
    05:00 +19°C° 0 mm 4 m/s 679 mmHg 53%
    06:00 +20°C° 0 mm 4 m/s 679 mmHg 49%
    07:00 +21°C° 0 mm 5 m/s 680 mmHg 44%
    08:00 +23°C° 0 mm 5 m/s 680 mmHg 40%
    09:00 +26°C° 0 mm 5 m/s 681 mmHg 33%
    10:00 +29°C° 0 mm 4 m/s 681 mmHg 25%
    11:00 +33°C° 0 mm 4 m/s 681 mmHg 18%
    12:00 +34°C° 0 mm 4 m/s 680 mmHg 15%
    13:00 +35°C° 0 mm 4 m/s 679 mmHg 12%
    14:00 +37°C° 0 mm 4 m/s 679 mmHg 10%
    15:00 +36°C° 0 mm 4 m/s 678 mmHg 10%
    16:00 +36°C° 0 mm 5 m/s 678 mmHg 10%
    17:00 +36°C° 0 mm 5 m/s 678 mmHg 10%
    18:00 +34°C° 0 mm 5 m/s 678 mmHg 12%
    19:00 +32°C° 0 mm 5 m/s 678 mmHg 14%
    20:00 +28°C° 0 mm 4 m/s 678 mmHg 17%
    21:00 +28°C° 0 mm 4 m/s 678 mmHg 18%
    22:00 +27°C° 0 mm 4 m/s 679 mmHg 20%
    23:00 +26°C° 0 mm 4 m/s 679 mmHg 22%

    23 Setembro, Sábado

    Tempo Temperatura Precipitação Vento Pressão Humidade
    00:00 +25°C° 0 mm 4 m/s 678 mmHg 23%
    01:00 +24°C° 0 mm 3 m/s 678 mmHg 25%
    02:00 +22°C° 0 mm 3 m/s 678 mmHg 26%
    03:00 +21°C° 0 mm 3 m/s 678 mmHg 28%
    04:00 +21°C° 0 mm 3 m/s 678 mmHg 29%
    05:00 +20°C° 0 mm 2 m/s 678 mmHg 31%
    06:00 +22°C° 0 mm 3 m/s 679 mmHg 28%
    07:00 +25°C° 0 mm 3 m/s 679 mmHg 25%
    08:00 +27°C° 0 mm 3 m/s 680 mmHg 22%
    09:00 +29°C° 0 mm 3 m/s 681 mmHg 19%
    10:00 +33°C° 0 mm 3 m/s 681 mmHg 15%
    11:00 +36°C° 0 mm 3 m/s 681 mmHg 11%
    12:00 +37°C° 0 mm 4 m/s 680 mmHg 9%
    13:00 +38°C° 0 mm 4 m/s 680 mmHg 8%
    14:00 +40°C° 0 mm 5 m/s 679 mmHg 6%
    15:00 +39°C° 0 mm 5 m/s 679 mmHg 6%
    16:00 +39°C° 0 mm 6 m/s 678 mmHg 7%
    17:00 +38°C° 0 mm 7 m/s 678 mmHg 7%
    18:00 +35°C° 0 mm 6 m/s 679 mmHg 9%
    19:00 +33°C° 0 mm 6 m/s 679 mmHg 11%
    20:00 +30°C° 0 mm 6 m/s 679 mmHg 13%
    21:00 +30°C° 0 mm 7 m/s 680 mmHg 16%
    22:00 +29°C° 0 mm 8 m/s 680 mmHg 18%
    23:00 +28°C° 0 mm 8 m/s 680 mmHg 21%

    24 Setembro, Domingo

    Tempo Temperatura Precipitação Vento Pressão Humidade
    00:00 +26°C° 0 mm 9 m/s 680 mmHg 33%
    01:00 +23°C° 0 mm 9 m/s 680 mmHg 46%
    02:00 +21°C° 0 mm 9 m/s 680 mmHg 58%
    03:00 +19°C° 0 mm 9 m/s 680 mmHg 63%
    04:00 +18°C° 0 mm 8 m/s 680 mmHg 68%
    05:00 +17°C° 0 mm 8 m/s 680 mmHg 73%
    06:00 +17°C° 0 mm 8 m/s 681 mmHg 70%
    07:00 +18°C° 0 mm 8 m/s 682 mmHg 67%
    08:00 +18°C° 0 mm 8 m/s 682 mmHg 65%
    09:00 +21°C° 0 mm 8 m/s 682 mmHg 59%
    10:00 +23°C° 0 mm 8 m/s 682 mmHg 53%
    11:00 +24°C° 0 mm 7 m/s 682 mmHg 47%
    12:00 +27°C° 0 mm 7 m/s 682 mmHg 42%
    13:00 +29°C° 0 mm 7 m/s 681 mmHg 38%
    14:00 +30°C° 0 mm 6 m/s 680 mmHg 33%
    15:00 +30°C° 0 mm 7 m/s 680 mmHg 34%
    16:00 +29°C° 0 mm 7 m/s 680 mmHg 35%
    17:00 +29°C° 0 mm 7 m/s 679 mmHg 36%
    18:00 +27°C° 0 mm 7 m/s 679 mmHg 41%
    19:00 +24°C° 0 mm 7 m/s 680 mmHg 47%
    20:00 +23°C° 0 mm 7 m/s 680 mmHg 53%
    21:00 +22°C° 0 mm 6 m/s 680 mmHg 57%
    22:00 +21°C° 0 mm 6 m/s 679 mmHg 61%
    23:00 +20°C° 0 mm 6 m/s 679 mmHg 65%

    25 Setembro, Segunda-feira

    Tempo Temperatura Precipitação Vento Pressão Humidade
    00:00 +19°C° 0 mm 6 m/s 679 mmHg 68%
    01:00 +19°C° 0 mm 5 m/s 678 mmHg 70%
    02:00 +17°C° 0 mm 5 m/s 678 mmHg 72%
    03:00 +17°C° 0 mm 5 m/s 678 mmHg 75%
    04:00 +17°C° 0 mm 4 m/s 678 mmHg 78%
    05:00 +17°C° 0 mm 4 m/s 678 mmHg 81%
    06:00 +18°C° 0 mm 4 m/s 678 mmHg 76%
    07:00 +19°C° 0 mm 4 m/s 679 mmHg 72%
    08:00 +20°C° 0 mm 4 m/s 679 mmHg 68%
    09:00 +23°C° 0 mm 4 m/s 679 mmHg 56%
    10:00 +27°C° 0 mm 3 m/s 679 mmHg 44%
    11:00 +30°C° 0 mm 3 m/s 679 mmHg 32%
    12:00 +33°C° 0 mm 3 m/s 679 mmHg 27%
    13:00 +34°C° 0 mm 3 m/s 678 mmHg 23%
    14:00 +36°C° 0 mm 3 m/s 677 mmHg 18%
    15:00 +36°C° 0 mm 3 m/s 677 mmHg 17%
    16:00 +36°C° 0 mm 3 m/s 676 mmHg 16%
    17:00 +36°C° 0 mm 3 m/s 676 mmHg 15%
    18:00 +34°C° 0 mm 3 m/s 676 mmHg 18%
    19:00 +31°C° 0 mm 3 m/s 676 mmHg 21%
    20:00 +29°C° 0 mm 3 m/s 675 mmHg 24%
    21:00 +28°C° 0 mm 3 m/s 675 mmHg 26%
    22:00 +27°C° 0 mm 4 m/s 675 mmHg 29%
    23:00 +26°C° 0 mm 4 m/s 675 mmHg 31%
    Mostrar mais